Torna al catalogo

GONETS M 03

AttivoComunicazioniPO
NORAD 38734·PAYLOAD·🇷🇺 Russia

Lanciato Jul 28, 2012 da Plesetsk Cosmodrome

Loading…

Prossimi Passaggi (prossime 24 ore)

TLE

AggiornatoSource: Space-Track

Epoca: Sep 14, 2026, 14:21 UTC

1 38734U 12041B   26257.59837884 -.00000024  00000-0 -23853-3 0  9999
2 38734  82.4807   8.7965 0016209 222.8284 137.1536 12.44904838641793

Traccia GONETS M 03 in tempo reale con AllMySat

Download on the App Store